Regional Weather Roundup
Issued by NWS

Home | Current Version | Previous Version | Text Only | Print | Product List | Glossary On
Versions: 1 2 3 4 5 6 7 8 9 10 11 12 13 14 15 16 17 18 19 20 21 22 23 24 25 26 27 28 29 30 31 32 33 34 35 36 37 38 39 40 41 42 43 44 45 46 47 48 49 50
000
ASUS43 KOAX 301910
RWRNE

WEATHER ROUNDUP FOR NEBRASKA
NATIONAL WEATHER SERVICE OMAHA NE
200 PM CDT TUE JUN 30 2015

NOTES: SATELLITE DATA IS BEING USED TO AUGMENT CLOUD COVER ABOVE
       12000 FEET.
       "FAIR" INDICATES FEW OR NO CLOUDS BELOW 12,000 FEET WITH NO
       SIGNIFICANT WEATHER AND/OR OBSTRUCTIONS TO VISIBILITY.

  * THESE STATIONS DO NOT REPORT WEATHER SUCH AS RAIN...SNOW OR FOG.

NEZ001>004-019>022-054>056-302000-
NEBRASKA PANHANDLE

CITY           SKY/WX    TMP DP  RH WIND       PRES   REMARKS
SCOTTSBLUFF    MOSUNNY   93  51  23 VRB5      29.98F HX  90
ALLIANCE       MOSUNNY   92  54  27 VRB6      29.97F HX  90
CHADRON        CLOUDY    88  63  43 VRB3      29.92F
KIMBALL          N/A    N/A N/A N/A MISG        N/A
SIDNEY         MOSUNNY   92  53  26 MISG      30.04F
$$

NEZ057>060-069>072-079>082-302000-
SOUTHWEST NEBRASKA

CITY           SKY/WX    TMP DP  RH WIND       PRES   REMARKS
NORTH PLATTE   SUNNY     93  61  34 SW8       29.92F HX  93
IMPERIAL       SUNNY     96  54  24 SW15      29.96F HX  94
LEXINGTON      PTSUNNY   95  58  29 SW8G17    29.92F HX  94
MCCOOK         SUNNY     98  52  21 SW14      29.92F HX  95
OGALLALA       SUNNY     94  56  27 W9        29.95F HX  92
$$

NEZ005>010-023>029-035>040-094-302000-
NORTH CENTRAL NEBRASKA

CITY           SKY/WX    TMP DP  RH WIND       PRES   REMARKS
VALENTINE      CLOUDY    83  64  52 SE13      29.91F
AINSWORTH      PTSUNNY   82  64  54 SE12      29.92F
BROKEN BOW     MOSUNNY   91  66  43 S7        29.92F HX  93
O`NEILL        CLOUDY    80  64  57 E9G17     29.93F
ORD            PTSUNNY   88  66  48 SE9G17    29.90F HX  90
THEDFORD       PTSUNNY   92  58  31 SW7       29.93F HX  91
$$

NEZ041-046>049-061>064-073>077-083>087-302000-
SOUTH CENTRAL NEBRASKA

CITY           SKY/WX    TMP DP  RH WIND       PRES   REMARKS
GRAND ISLAND   CLOUDY    89  70  53 E9G20     29.91F HX  94
AURORA         CLOUDY    86  69  57 E12       29.91F
HASTINGS       CLOUDY    91  59  33 SW7       29.91F HX  90
HEBRON         MOSUNNY   95  49  20 W6        29.90F HX  92
HOLDREGE       PTSUNNY   92  58  32 SW9       29.92F HX  91
KEARNEY *      PTSUNNY   91  63  38 SW13      29.91F HX  92
YORK           PTSUNNY   86  68  54 SE8       29.92F
$$

NEZ011>018-030>034-042>045-302000-
NORTHEAST NEBRASKA

CITY           SKY/WX    TMP DP  RH WIND       PRES   REMARKS
NORFOLK        CLOUDY    74  64  71 E10       29.94F
ALBION         CLOUDY    84  61  46 SE10      29.93S
BLAIR          LGT RAIN  75  63  67 NE8       29.93F
COLUMBUS *     PTSUNNY  N/A N/A N/A MISG        N/A
FREMONT        CLOUDY    76  63  62 E7        29.93F
TEKAMAH        LGT RAIN  76  67  73 CALM      29.91F
WAYNE          CLOUDY    71  67  86 CALM      29.93R
$$

NEZ050>053-065>068-078-088>093-302000-
SOUTHEAST NEBRASKA

CITY           SKY/WX    TMP DP  RH WIND       PRES   REMARKS
LINCOLN        CLOUDY    88  66  48 NE16G23   29.93F HX  90
OMAHA EPPLEY   LGT RAIN  77  67  71 CALM      29.93F HAZE
BEATRICE       CLOUDY    86  67  52 E6        29.92F
FALLS CITY     CLOUDY    83  70  64 NE6       29.93S
NEBRASKA CITY  CLOUDY    78  62  58 E3        29.95F
PLATTSMOUTH    CLOUDY    77  64  62 CALM      29.94F
$$

NEZ044-045-051>053-067-302000-
OMAHA AREA

CITY           SKY/WX    TMP DP  RH WIND       PRES   REMARKS
OMAHA EPPLEY   LGT RAIN  77  67  71 CALM      29.93F HAZE
BLAIR          LGT RAIN  75  63  67 NE8       29.93F
FREMONT        CLOUDY    76  63  62 E7        29.93F
MILLARD        LGT RAIN  78  65  64 NE3       29.93F
OFFUTT AFB     LGT RAIN  79  66  65 NE3       29.93F HAZE
PLATTSMOUTH    CLOUDY    77  64  62 CALM      29.94F
WAHOO          FAIR      80  64  58 NE10      29.93F
$$


USA.gov is the U.S. government's official web portal to all federal, state and local government web resources and services.